Volver al catálogo

COSMOS 2461

GLONASS

ActivoNavegaciónMEO
NORAD 36401·PAYLOAD·🇷🇺 Russia

Lanzado Mar 1, 2010 desde Baikonur Cosmodrome

Loading…

Próximos Pases (próximas 24 horas)

TLE

ActualizadoSource: Space-Track

Época: Sep 12, 2026, 07:27 UTC

1 36401U 10007B   26255.31077162 -.00000044  00000-0  00000-0 0  9998
2 36401  65.3803 311.5907 0019775 356.6733 318.6199  2.13106797128676

Sigue COSMOS 2461 en tiempo real con AllMySat

Download on the App Store